Theta_e
296 296 296 297 298 298 299 300 300 301 302 303 303 304 305 304 304 303 303 304 304 302 301 300 298 296 295 294 293 293 293 293 293 293 293 293 294 294 294 294 294 295 295 295 295 296 295 295 294 294 294 293 293 293 294 294 295 295 296 298 298 296 296 297 296 296 295 295 297 298 302 303 301 299 297 298 300 300 299 300 299 299 300 299 299
295 295 296 296 296 297 298 298 299 298 299 300 300 302 302 303 302 302 301 301 301 299 297 296 295 293 292 291 291 291 291 291 290 291 292 293 292 292 292 293 293 293 294 294 293 293 292 292 292 292 292 291 291 292 292 292 292 292 293 294 297 296 295 296 295 294 292 291 291 294 298 300 299 297 296 297 299 299 300 300 300 300 298 297 297
294 294 295 295 296 297 297 297 297 297 298 299 300 300 301 301 300 300 299 298 297 296 295 294 294 294 292 291 291 290 291 291 291 291 291 291 291 292 292 292 292 292 292 293 293 292 292 291 291 291 291 291 290 290 290 290 291 290 290 290 291 293 293 294 293 293 290 291 292 291 291 293 298 294 295 296 295 299 297 298 299 299 297 295 295
292 293 294 295 295 295 296 296 296 298 297 297 298 299 300 300 299 298 296 295 294 294 294 293 293 292 292 291 291 290 289 290 290 290 290 290 290 291 291 291 291 291 292 292 292 291 291 291 290 290 290 291 290 289 289 289 290 290 289 289 289 288 288 288 291 291 289 290 287 289 290 290 286 288 291 293 294 296 294 295 296 297 294 293 293
292 293 293 294 294 295 295 296 297 296 295 295 296 298 299 298 297 296 295 294 294 293 293 292 292 291 291 291 291 290 290 289 289 288 289 289 289 289 290 290 291 290 291 291 291 290 290 290 290 289 289 289 289 289 288 288 288 289 289 288 287 287 287 286 288 289 289 290 289 287 286 285 285 287 289 289 292 293 291 292 294 293 292 291 292
293 292 293 293 293 294 295 296 295 294 294 294 295 296 296 297 297 296 295 294 293 293 293 293 291 291 290 289 288 287 286 286 286 286 287 287 288 288 289 290 290 289 289 289 290 289 289 289 289 288 288 288 289 288 288 288 288 287 288 288 287 288 287 286 285 288 288 289 288 287 288 286 282 285 286 283 289 289 288 289 291 289 289 290 290
293 293 293 293 293 294 294 294 293 292 292 293 293 294 295 295 295 295 294 294 296 294 294 294 292 291 290 289 288 287 286 287 287 287 287 287 288 288 288 288 289 288 288 288 288 288 288 288 287 287 287 287 288 287 287 287 287 287 288 287 287 288 287 284 284 285 285 286 287 287 287 286 285 284 281 283 279 283 285 286 287 287 287 287 289
292 292 292 293 293 293 292 293 291 291 291 292 292 293 293 293 293 293 292 292 293 293 293 292 291 290 289 289 289 288 287 287 288 288 288 288 287 287 287 288 288 288 288 288 288 288 287 287 287 286 286 286 287 286 286 286 287 287 287 286 286 286 286 284 283 284 283 284 286 285 285 285 284 284 284 282 280 278 280 284 285 285 285 285 287
292 291 292 292 292 291 290 290 290 291 291 291 291 291 292 292 291 291 291 291 291 292 292 291 291 290 289 289 288 288 288 288 288 289 288 288 287 287 286 286 287 288 288 287 287 287 287 286 286 285 285 285 286 286 286 286 285 285 285 285 284 285 285 285 283 283 283 283 283 283 283 283 282 282 283 283 279 278 277 279 280 283 282 283 285
292 292 291 291 290 290 290 289 289 289 290 291 290 290 291 290 290 290 290 290 291 291 291 290 290 290 289 288 288 288 288 288 288 287 287 287 286 286 286 286 285 286 286 286 286 286 286 286 285 285 284 285 285 284 285 285 285 284 285 284 284 283 284 284 284 283 283 283 282 283 282 281 280 280 280 280 279 280 278 278 279 280 279 281 283
291 291 290 290 289 289 289 288 288 288 288 289 289 289 289 289 289 289 289 290 290 290 290 290 290 290 289 289 288 288 288 288 287 287 287 286 286 286 285 285 285 285 285 285 285 285 285 285 284 284 284 285 284 284 283 284 284 284 284 284 283 283 283 283 284 283 283 282 282 281 281 281 281 279 279 280 279 277 277 277 278 279 280 280 281
290 290 288 288 287 287 287 287 287 288 288 289 288 289 289 288 288 288 289 289 290 290 291 291 290 290 289 289 289 289 289 288 287 286 286 286 286 285 285 285 285 285 284 284 284 284 284 284 284 283 283 283 283 284 284 283 284 283 283 283 283 282 283 283 282 282 282 282 281 282 281 282 282 281 282 282 280 279 279 277 278 279 279 279 282
289 289 287 287 287 287 286 286 286 287 287 288 288 288 288 288 288 288 288 288 289 290 290 290 290 290 290 289 289 289 289 288 287 287 286 286 285 285 284 284 283 283 283 283 283 283 283 283 283 282 282 283 282 283 283 283 283 282 283 282 282 281 281 282 281 281 282 281 280 282 282 282 281 282 282 281 281 280 279 277 278 278 277 278 279
289 288 287 287 287 287 287 286 286 287 287 287 287 287 287 288 287 287 287 288 289 289 289 289 289 289 289 289 289 289 288 288 287 287 286 286 286 285 284 284 283 283 283 282 283 283 283 283 283 282 282 282 282 282 282 282 282 281 281 281 281 281 281 281 281 280 281 280 281 280 280 280 280 282 281 281 280 279 277 277 277 277 277 277 279
289 288 288 287 287 287 287 286 286 286 286 287 287 287 287 287 287 287 287 287 288 288 288 288 288 288 288 288 288 288 288 287 287 287 286 285 285 285 284 284 283 283 282 283 283 282 283 282 282 282 282 282 281 281 282 281 281 281 281 281 281 281 280 280 280 279 281 279 279 279 280 279 279 280 280 281 281 280 279 278 277 275 276 276 276
289 288 287 287 287 287 286 286 286 286 286 286 286 286 286 286 286 286 287 287 287 287 287 288 288 288 287 287 287 287 287 286 286 286 285 285 285 284 284 283 284 283 283 282 283 282 282 282 281 281 281 281 281 280 280 280 280 279 279 279 278 282 279 279 279 278 278 278 278 279 278 278 279 279 280 280 279 280 280 278 278 276 275 273 276
289 288 288 287 286 286 286 286 286 285 285 286 286 286 286 286 286 286 286 286 286 287 287 287 287 286 286 286 286 285 285 284 285 284 285 285 284 284 283 283 283 283 284 283 282 281 281 281 280 280 280 280 279 279 279 278 279 278 278 278 278 278 278 278 278 278 278 278 277 277 278 278 278 278 278 279 279 279 279 278 278 277 277 274 273
289 289 288 287 287 287 286 286 286 285 285 285 286 286 286 286 286 286 285 285 286 286 286 286 286 285 285 285 285 285 285 284 284 284 284 284 283 283 283 282 282 283 283 283 281 280 280 281 279 279 278 278 278 278 278 277 278 278 277 277 277 277 277 278 278 277 277 277 278 277 277 278 278 277 278 278 278 278 277 278 278 278 277 275 274
289 288 288 287 287 287 287 286 286 285 286 285 286 286 285 284 285 285 285 285 285 286 286 286 286 287 286 285 284 284 284 284 284 284 283 282 282 282 281 281 281 281 281 280 279 278 278 278 277 277 277 277 277 277 277 277 277 276 277 277 276 276 276 276 277 277 277 277 276 276 276 276 277 277 277 277 277 278 277 277 276 278 277 276 275
289 289 288 288 287 287 286 286 285 285 285 284 285 285 284 285 285 285 285 285 285 285 285 285 285 286 285 284 284 284 284 284 283 283 282 281 281 281 280 279 280 280 279 278 278 277 277 277 277 277 276 276 276 276 276 276 275 275 275 276 276 275 275 274 275 276 278 277 275 275 275 276 276 275 276 276 276 276 277 277 277 277 276 276 276
289 289 289 288 287 286 286 285 284 284 284 284 285 284 284 285 284 285 285 284 284 284 285 285 285 284 283 283 283 283 283 283 282 282 281 281 281 281 279 279 279 278 278 277 277 276 276 276 276 276 276 276 275 275 275 275 275 274 274 275 275 275 274 274 274 274 275 275 275 274 274 275 275 274 275 275 275 275 275 276 276 275 275 275 275
290 289 289 288 287 286 285 285 284 284 284 283 284 284 283 284 284 284 284 284 283 284 284 284 284 283 283 283 283 282 282 282 281 281 280 280 279 279 279 278 277 277 277 277 276 276 276 276 276 275 275 275 275 275 274 274 274 274 273 276 276 273 273 273 273 273 273 276 274 273 274 274 275 274 274 274 274 274 274 274 274 274 273 274 274
290 290 289 288 287 286 285 285 284 283 283 283 283 283 283 283 283 283 283 283 283 283 284 283 283 283 282 282 282 282 282 281 280 279 279 279 278 278 278 277 277 277 276 276 275 275 276 275 275 275 274 275 275 274 274 274 273 273 272 272 274 273 273 273 273 273 273 273 273 273 273 273 275 273 273 273 274 273 273 273 273 273 273 273 274
290 290 289 288 286 285 285 284 283 283 283 283 283 283 283 283 283 283 283 283 283 283 283 283 283 282 282 282 281 281 281 280 279 278 278 277 277 277 277 277 276 276 276 275 275 275 275 274 274 274 274 273 273 273 273 273 273 273 272 272 272 272 273 273 273 272 272 273 272 272 272 272 273 272 272 272 273 272 272 272 272 272 272 272 273
289 289 288 286 285 285 285 284 284 283 283 283 282 283 283 283 283 283 283 283 283 283 283 283 282 282 282 281 281 281 280 279 278 277 277 276 276 276 276 275 275 275 275 274 275 274 274 274 274 273 273 273 273 273 273 272 272 272 272 272 272 273 273 273 273 273 275 272 272 272 272 272 272 272 272 272 272 271 271 271 271 272 272 272 272
289 288 287 286 286 286 285 284 284 283 283 283 283 283 283 283 283 283 283 283 283 283 283 282 282 282 281 281 280 280 279 278 277 276 276 276 275 275 275 274 274 274 273 273 272 273 273 272 272 272 272 272 272 272 272 271 271 272 272 272 273 273 273 273 272 273 273 272 272 272 272 272 272 272 272 271 271 271 271 271 271 271 271 272 271
289 288 287 286 285 285 285 284 284 283 283 283 283 282 282 283 282 283 283 283 283 283 282 282 282 281 281 280 280 279 279 278 277 276 275 275 275 275 274 273 273 273 272 272 272 272 273 271 272 272 271 271 272 271 271 271 271 272 272 273 273 272 273 272 273 273 273 273 272 272 272 272 272 272 271 271 271 271 271 271 271 271 271 271 271
287 286 286 286 286 286 285 284 284 283 283 283 283 283 283 282 282 283 283 283 283 282 282 282 281 281 281 281 280 279 278 278 276 276 275 276 275 274 273 273 273 272 272 272 271 272 271 271 271 271 271 271 271 271 271 270 271 272 272 272 272 272 272 272 272 273 272 272 273 272 272 272 272 272 271 272 272 271 272 271 272 272 272 272 271
287 288 287 287 286 286 285 285 284 283 283 282 282 282 282 282 282 283 283 283 283 282 282 281 281 280 280 280 280 279 278 277 276 275 275 274 274 273 273 272 272 272 273 271 271 271 271 271 271 271 271 271 271 271 271 270 270 272 273 273 273 272 272 272 272 272 272 272 272 273 272 272 274 276 277 276 276 276 273 270 271 273 272 272 271
288 289 289 288 287 287 286 285 284 283 283 282 282 282 282 282 283 284 284 284 283 282 281 281 280 280 281 280 280 279 278 277 276 276 275 274 273 272 272 271 271 270 270 270 270 270 270 270 270 270 270 271 271 271 273 274 275 274 273 274 274 273 272 272 271 271 271 272 272 272 273 276 276 275 275 276 276 276 276 275 274 273 273 272 271
290 289 289 288 288 287 286 285 285 284 283 283 283 283 282 283 283 283 283 284 283 282 281 281 280 280 280 279 279 277 276 276 276 275 274 273 272 271 270 270 269 268 269 269 269 270 269 270 270 269 269 270 270 271 274 275 276 276 275 274 273 273 273 273 272 271 270 271 271 272 271 272 273 273 273 274 275 275 276 276 276 276 276 274 272
290 289 289 288 288 288 287 286 285 285 284 283 283 283 283 283 283 283 283 284 283 282 281 281 280 280 280 279 278 277 277 276 275 274 273 272 271 270 270 269 268 268 268 267 268 269 269 269 269 269 268 269 269 274 275 275 276 276 276 275 274 273 273 273 273 272 272 271 270 270 270 271 271 271 272 271 272 274 275 275 276 276 276 276 276
289 289 289 290 289 289 288 287 286 285 284 284 284 284 283 284 283 284 283 283 282 281 281 281 281 281 280 280 279 278 277 275 274 273 271 270 270 270 269 268 268 268 267 267 269 269 268 268 268 268 267 267 268 273 275 275 275 276 276 276 274 273 272 272 273 273 272 271 270 269 269 270 270 273 272 270 270 270 273 275 275 276 276 276 277
289 290 290 290 289 289 288 287 287 286 285 285 285 285 285 284 284 283 282 282 281 281 281 281 281 281 281 279 278 277 276 275 273 271 270 269 269 269 268 268 268 268 268 267 266 267 267 267 267 267 266 267 267 271 274 275 275 276 276 276 274 273 273 272 272 272 271 270 269 269 269 269 269 269 270 270 270 270 271 272 272 272 273 274 276
289 289 288 288 289 289 288 287 287 286 286 285 285 285 284 283 283 282 282 281 281 281 281 281 281 280 279 279 278 276 275 273 272 270 269 269 268 268 268 268 268 268 267 267 267 266 266 265 264 265 265 265 266 272 274 275 275 276 276 276 274 273 272 272 272 271 270 269 269 270 269 269 269 269 270 272 272 272 273 273 273 273 273 274 274
288 288 288 288 288 289 288 288 288 287 286 286 285 285 284 284 283 282 282 281 281 281 281 281 280 279 278 278 277 275 274 272 271 270 269 269 268 268 268 268 267 267 266 266 266 266 266 265 264 263 263 264 265 272 273 274 275 275 275 273 272 271 271 270 269 270 270 270 270 270 269 269 269 270 272 275 275 275 274 274 273 274 274 275 275
288 288 288 288 288 288 287 287 287 287 286 285 285 285 284 283 282 282 282 281 281 280 280 281 280 279 279 278 277 275 273 272 270 269 268 268 268 267 267 267 266 268 267 266 265 265 264 264 263 263 263 263 263 268 272 274 274 275 274 271 270 270 270 269 270 270 271 271 270 270 270 271 271 271 274 276 277 278 275 275 274 273 274 274 275
286 286 286 286 286 286 286 287 286 285 285 285 285 284 284 282 282 282 281 280 280 280 281 281 280 279 279 278 277 275 274 272 270 270 269 269 269 268 267 267 267 266 267 265 264 263 262 263 263 263 263 261 262 266 271 273 274 274 273 271 270 269 269 269 269 270 270 270 270 273 273 272 272 272 275 277 279 277 275 274 273 273 273 273 273
285 285 285 284 285 286 285 285 285 284 284 284 284 284 283 282 282 281 281 280 280 281 281 281 280 280 279 277 276 275 274 272 271 271 270 269 269 268 267 266 266 265 265 264 264 263 261 261 262 262 266 264 262 265 270 272 274 274 273 271 270 269 268 269 269 269 271 271 271 273 274 274 274 275 278 278 278 277 274 274 273 272 271 270 271
282 282 282 282 283 283 283 283 284 284 283 283 283 283 282 282 281 281 280 280 281 281 281 281 281 279 278 276 275 275 274 273 272 270 269 269 268 266 266 266 265 265 264 263 262 262 262 262 262 262 262 263 263 262 264 270 272 273 274 272 270 269 268 268 269 269 269 271 271 271 273 276 277 277 278 278 277 278 275 274 273 271 269 268 271
281 282 283 282 282 283 283 283 282 282 282 282 282 282 282 281 280 280 280 281 281 281 281 281 279 278 276 275 275 274 274 273 272 270 269 268 267 267 265 264 264 263 263 262 262 261 261 261 261 262 261 262 262 262 263 270 272 273 274 274 271 270 270 269 269 269 270 270 271 272 272 275 276 277 277 277 277 277 277 274 272 269 270 272 275
281 281 281 281 280 280 281 281 281 282 282 282 282 282 281 280 280 280 281 282 281 280 280 278 278 277 276 275 274 273 272 271 269 268 267 266 265 265 264 263 263 262 262 261 260 260 260 260 261 261 261 261 263 266 262 267 271 273 274 275 272 271 271 270 269 270 270 271 271 272 272 274 275 276 276 277 277 277 276 272 270 274 275 275 272
279 280 280 280 280 280 280 280 280 280 280 281 281 281 280 280 279 281 282 281 279 278 278 278 277 276 275 274 272 271 270 269 267 267 267 265 264 263 262 262 262 261 261 260 259 259 259 260 260 261 262 262 262 263 268 266 270 272 274 274 275 273 274 273 271 271 271 271 272 273 273 274 276 276 276 276 276 276 273 271 274 274 274 274 270
279 279 280 279 279 279 279 278 278 279 279 280 281 280 279 279 280 282 278 276 277 277 277 276 276 275 273 271 270 268 267 266 266 265 265 264 262 261 261 261 261 261 260 259 259 259 259 259 260 261 262 262 263 262 266 270 269 272 274 274 275 275 276 273 273 272 272 272 273 272 272 275 276 276 275 275 275 273 271 273 273 273 273 270 264
279 279 279 279 280 279 278 276 276 276 277 278 279 279 278 278 280 278 278 277 277 276 276 275 274 273 271 269 267 266 265 264 264 265 264 263 261 260 260 260 260 260 260 260 260 261 260 260 261 261 262 263 263 263 263 267 271 272 274 274 275 275 276 276 273 273 274 273 274 276 276 275 275 274 274 273 271 270 272 272 273 272 269 261 261
278 278 278 277 277 277 276 275 274 274 275 275 276 277 278 279 277 275 276 275 275 274 274 274 273 271 269 267 265 263 262 262 262 263 264 263 262 261 261 261 260 260 261 261 262 262 262 262 262 262 262 263 263 263 264 265 269 271 272 273 274 274 274 275 274 274 275 276 276 276 276 274 273 272 269 266 265 266 270 271 270 268 261 261 259
279 279 278 277 275 276 276 274 274 272 273 273 274 275 278 276 272 274 274 274 273 274 273 271 271 269 266 266 265 264 262 261 261 261 262 262 262 261 262 262 261 261 261 262 262 262 262 262 262 261 261 262 262 263 263 263 265 265 265 268 270 271 273 274 273 272 273 272 273 272 271 272 272 272 271 270 269 268 265 264 262 260 260 260 261
278 276 276 274 275 276 276 275 276 275 274 273 274 275 276 273 271 272 271 272 272 273 273 272 270 268 266 265 265 264 262 261 261 261 262 262 262 262 262 263 262 263 262 263 263 263 263 263 262 261 261 261 262 261 263 264 264 264 265 266 268 270 270 270 270 271 271 270 268 270 269 264 262 261 262 259 259 259 260 261 260 259 260 261 263
278 276 276 277 276 276 276 276 277 277 275 273 273 274 272 273 271 268 270 272 272 269 269 267 266 266 264 264 264 263 262 261 260 260 261 262 262 262 263 263 263 265 265 265 264 264 264 264 264 263 262 263 263 262 264 269 267 270 268 266 268 269 270 270 272 273 271 268 267 265 261 260 258 259 259 258 258 258 258 259 258 258 258 259 259
277 276 275 275 275 276 276 276 277 274 274 274 273 273 270 270 269 266 269 271 270 268 267 267 266 266 264 263 263 262 262 262 261 260 260 260 265 267 265 263 263 268 271 272 270 266 265 265 264 265 265 264 264 263 270 272 272 273 274 274 273 273 274 273 274 275 272 266 265 260 258 258 258 257 257 257 258 256 257 257 256 262 260 258 259
276 276 275 275 276 275 273 273 275 272 274 274 273 270 269 268 269 268 268 268 268 268 267 266 265 265 265 263 263 262 262 262 261 261 260 261 259 264 270 271 270 269 271 272 273 273 272 271 266 264 267 271 270 271 271 272 273 274 274 275 275 275 276 275 275 271 267 265 263 260 258 257 258 257 257 258 257 257 257 257 257 257 257 258 260
Wind_Speed
5 5 4 4 4 3 3 3 3 4 4 4 4 4 5 5 6 7 6 6 6 5 5 6 7 8 9 10 9 8 8 9 10 9 10 9 10 10 10 9 10 10 10 9 9 9 9 8 9 9 8 9 9 9 8 9 9 8 7 6 6 7 8 9 11 6 6 9 7 7 7 7 9 8 10 8 7 5 6 7 5 7 7 8 8
6 5 5 5 4 4 3 3 3 5 4 4 4 4 5 5 6 6 6 7 7 7 7 8 7 6 8 7 8 7 8 9 9 8 9 9 10 10 9 9 10 10 10 9 10 9 9 9 9 9 9 9 8 8 9 10 11 11 8 8 6 7 6 8 10 7 8 6 5 6 5 5 5 9 10 8 8 8 7 7 5 6 7 8 7
6 6 5 4 4 4 4 4 4 4 4 3 3 4 4 5 6 6 6 6 7 7 8 8 7 7 8 7 9 9 8 8 8 8 8 10 10 10 10 10 10 10 10 9 9 9 9 9 8 8 8 7 9 10 10 11 9 10 10 8 6 6 5 6 9 10 6 6 3 3 4 4 2 8 9 8 8 7 8 8 7 7 8 8 7
7 7 7 6 5 5 4 5 4 4 4 4 3 4 5 5 6 7 7 6 7 8 9 9 11 10 10 10 10 10 9 8 9 10 10 11 12 10 10 9 10 10 10 9 9 9 9 9 8 8 9 8 7 8 10 10 9 9 9 9 6 7 6 8 8 10 9 8 7 2 3 2 4 5 9 7 5 7 9 8 7 6 7 7 7
8 8 7 7 6 5 5 5 5 5 4 3 3 4 4 6 6 7 7 7 7 9 12 11 12 11 10 9 8 9 8 8 9 10 9 8 9 10 9 8 9 9 9 9 8 9 9 8 8 8 8 8 7 8 8 8 8 7 9 8 9 6 7 6 8 9 11 9 4 4 5 5 2 5 5 6 8 7 8 9 6 7 8 8 7
7 8 8 7 6 6 6 5 5 5 4 3 3 4 4 6 6 6 7 7 8 7 9 9 8 8 7 7 9 9 9 8 9 8 7 8 8 5 8 8 8 8 8 8 8 8 9 9 8 8 8 8 7 7 6 7 9 9 8 6 9 9 5 7 7 8 7 10 8 5 3 1 4 6 4 6 6 3 6 8 6 7 9 10 8
6 7 7 8 7 6 6 6 5 6 4 2 3 4 5 5 5 5 5 4 4 5 5 4 5 6 7 8 8 9 11 6 6 6 7 6 6 7 7 7 7 8 8 7 8 8 8 8 8 7 7 7 6 7 8 8 7 7 7 8 7 7 7 7 7 6 6 7 8 7 8 5 4 3 3 4 7 2 3 6 6 8 8 8 7
8 8 8 7 7 7 7 6 6 5 4 4 4 4 5 5 5 5 4 4 4 6 8 8 9 9 9 9 9 8 9 10 7 7 6 6 8 7 7 7 8 8 8 8 8 8 8 8 8 8 8 7 7 7 7 6 7 6 7 7 7 7 6 6 5 7 6 5 7 7 6 5 6 5 3 3 3 8 11 3 1 5 6 6 5
8 9 9 9 8 7 7 6 5 5 4 4 4 4 5 5 6 5 6 5 5 7 8 8 8 9 9 10 11 8 9 8 7 6 7 6 7 6 7 7 7 7 7 7 8 8 7 7 7 7 7 7 7 7 7 7 7 7 8 9 7 7 7 5 6 7 6 6 6 5 5 5 6 4 4 5 3 5 6 6 11 7 4 4 6
7 8 8 7 7 7 7 6 6 4 4 5 4 4 5 5 6 6 6 6 6 7 8 8 8 8 10 10 13 10 8 8 7 7 6 6 8 7 7 7 6 6 7 6 7 7 7 7 7 7 7 7 7 7 7 7 7 7 6 6 7 7 6 6 7 6 6 6 6 5 5 5 4 3 3 5 3 3 5 9 7 12 13 6 7
9 9 8 8 6 7 7 7 6 5 4 5 5 5 5 5 6 7 6 6 6 7 7 9 8 8 10 10 11 12 10 9 9 8 7 6 8 7 6 6 6 6 6 7 7 7 7 7 7 7 7 7 7 7 7 7 6 6 6 6 7 7 7 6 7 6 6 7 7 6 6 5 4 3 4 5 4 4 6 6 6 6 7 12 6
10 10 9 9 8 6 6 7 6 5 5 5 4 5 5 5 7 8 6 6 6 6 8 8 8 8 8 9 11 9 9 8 9 9 7 7 6 7 6 6 6 6 6 6 7 7 7 7 7 6 7 7 7 6 6 6 6 5 6 6 6 6 6 6 5 6 6 6 5 6 6 6 6 5 4 5 5 6 5 7 8 7 6 4 7
10 10 9 9 9 9 8 8 7 6 6 5 5 5 5 6 7 9 7 6 6 7 8 8 8 8 8 8 8 8 9 9 8 8 6 7 6 6 6 6 6 6 6 7 6 7 6 7 7 6 6 6 6 6 5 6 6 4 6 5 6 6 6 5 5 5 4 5 6 6 5 6 6 5 6 5 5 5 6 7 6 4 8 10 6
9 9 9 9 9 8 7 8 7 7 7 7 6 6 6 6 6 8 7 6 6 7 8 8 7 7 7 8 8 8 8 8 7 8 7 7 7 7 7 6 6 6 5 5 4 4 5 4 4 4 4 4 5 5 5 5 5 5 5 5 5 5 5 5 4 4 4 4 4 4 5 6 6 6 5 6 6 6 6 6 8 6 5 9 7
9 9 10 10 10 8 8 8 7 7 8 7 6 6 6 7 7 8 8 7 7 7 7 9 8 8 7 7 8 7 8 8 8 7 7 8 7 7 7 6 6 5 5 3 4 3 3 4 4 4 4 4 4 4 5 4 5 4 4 4 4 4 5 5 4 4 5 5 5 4 6 6 6 6 6 5 5 5 5 6 6 11 9 6 7
10 9 9 8 8 7 8 7 7 8 7 6 6 7 7 7 7 7 9 8 8 8 7 8 8 7 7 8 8 9 8 8 7 7 7 7 7 7 7 6 6 5 4 4 4 4 4 4 4 4 4 4 4 4 4 4 4 4 4 4 4 3 5 5 4 4 4 4 4 4 4 5 5 5 5 5 6 5 6 5 6 5 8 12 10
11 11 10 10 8 7 8 7 8 8 8 7 7 7 8 9 9 8 8 7 8 7 8 7 8 8 8 8 8 8 8 8 8 8 8 7 6 6 6 6 5 4 4 4 4 4 3 4 4 4 4 3 4 4 4 4 4 4 4 4 4 4 4 4 4 3 4 3 4 4 4 5 5 4 4 5 5 4 4 5 5 4 5 7 8
10 9 8 9 9 9 8 7 7 8 9 8 8 6 7 8 9 10 9 10 7 8 8 8 9 9 8 8 8 8 8 7 7 7 7 8 6 5 5 6 5 4 4 4 4 4 4 4 4 4 4 4 4 4 4 4 4 4 4 3 3 4 4 4 4 3 4 3 3 3 4 4 4 4 4 4 4 5 5 5 4 5 5 6 6
12 12 11 11 11 11 10 9 8 8 8 7 7 7 7 6 7 9 10 9 9 7 7 7 7 7 7 8 8 8 7 7 6 6 6 6 6 6 5 5 5 4 5 4 4 4 4 4 4 4 4 4 4 4 4 4 4 3 4 4 4 4 4 4 4 3 3 3 3 4 4 3 4 4 4 5 4 5 6 5 5 5 5 4 6
14 13 12 12 11 11 11 11 11 11 9 8 7 7 8 8 8 7 7 7 8 8 8 9 7 8 9 8 7 7 7 7 6 7 7 6 5 5 5 5 5 5 4 5 4 4 4 4 3 4 4 3 3 3 3 3 3 3 4 4 3 4 4 4 4 4 3 3 3 4 4 4 4 3 4 5 5 5 4 5 5 5 4 4 4
14 14 13 13 12 11 9 8 8 7 6 7 7 9 8 8 8 8 11 9 9 8 8 8 9 9 9 8 8 8 7 7 7 6 6 5 5 5 5 5 5 5 4 5 4 4 3 3 3 2 2 1 2 2 3 3 3 3 3 3 3 3 3 3 3 4 3 3 3 4 4 4 3 4 4 5 5 5 5 5 4 5 6 4 5
14 14 12 12 11 10 8 7 6 8 8 9 8 7 7 8 8 8 8 8 9 8 8 8 7 9 8 9 8 7 7 7 7 6 6 5 5 6 5 5 5 4 4 4 4 4 3 3 1 1 1 1 1 1 2 2 2 2 3 2 3 3 3 3 3 3 3 3 3 3 4 4 3 4 4 5 5 5 4 4 5 5 5 5 3
15 15 13 12 11 11 11 11 11 11 10 9 8 8 8 8 8 7 9 8 8 8 7 8 9 9 8 8 8 8 7 7 7 6 6 6 5 5 5 6 5 4 4 4 4 3 2 2 1 1 2 1 1 1 2 2 1 1 1 2 2 2 2 2 3 3 3 3 3 3 4 3 3 4 4 4 4 4 3 4 5 4 5 5 4
9 9 9 10 10 10 10 12 12 11 11 11 9 7 7 7 8 8 10 9 8 8 8 8 8 8 8 8 8 8 8 7 7 6 7 6 6 5 4 5 5 4 5 4 3 2 1 2 1 2 1 1 1 1 1 1 1 0 1 1 2 2 2 2 2 3 3 3 3 3 4 3 4 4 4 5 4 3 4 4 5 5 5 5 4
12 13 13 11 12 14 15 13 13 11 10 10 10 10 9 9 8 10 9 9 8 8 9 8 9 10 9 9 8 8 8 7 7 7 7 7 6 6 4 5 5 4 4 4 4 3 1 2 2 1 1 0 0 0 0 1 1 1 1 2 2 1 2 2 3 3 4 3 3 3 4 4 4 5 5 4 4 4 4 5 6 5 5 5 5
14 13 12 16 16 14 12 12 11 11 12 12 11 11 10 9 10 8 10 9 9 8 9 10 9 10 10 9 9 8 8 8 8 7 8 7 7 6 5 4 4 5 4 4 3 2 3 1 2 1 1 1 0 0 1 1 0 1 1 2 2 2 2 2 3 3 3 3 3 3 3 3 4 5 5 4 3 4 5 6 5 5 5 5 6
16 16 14 9 9 14 15 13 12 12 12 12 12 11 11 10 10 9 9 10 10 10 9 10 9 9 10 9 9 9 9 8 8 8 7 7 7 6 5 5 4 4 4 4 4 2 1 3 1 2 1 1 0 1 1 0 1 2 3 3 3 3 3 3 3 3 3 4 3 3 3 4 4 4 5 3 4 5 5 5 5 6 5 6 7
7 8 11 16 18 15 14 14 13 13 12 11 11 11 12 12 12 10 10 10 9 10 10 10 10 10 10 10 10 8 8 8 7 7 7 7 7 6 5 4 4 4 4 4 4 4 2 3 2 1 1 1 0 1 1 2 3 2 2 3 3 3 3 3 3 4 3 3 4 4 4 4 4 4 3 4 4 6 5 5 5 6 8 8 8
13 15 16 16 15 16 16 16 16 14 14 14 13 12 11 10 10 11 11 12 11 11 11 11 10 11 10 9 8 7 8 8 8 8 9 8 7 6 5 5 4 3 4 3 3 3 2 3 3 3 1 0 1 1 1 2 1 1 1 2 2 3 3 3 3 3 4 4 4 4 4 3 4 8 13 12 11 10 7 5 5 5 8 9 9
14 16 17 17 17 15 15 14 13 16 16 14 14 14 14 14 13 12 12 11 11 11 12 11 11 11 9 9 9 8 8 8 9 9 9 8 8 7 7 5 4 3 3 3 3 2 3 3 3 2 2 2 1 1 3 3 3 2 2 3 3 3 3 3 3 4 4 4 4 4 4 9 12 13 13 14 13 13 13 10 8 8 7 7 7
13 13 14 13 13 13 12 13 15 17 18 17 15 14 12 12 13 14 13 13 12 12 12 12 11 9 9 9 9 8 9 9 8 8 7 8 8 7 6 5 4 4 4 3 3 4 3 3 3 2 2 2 2 2 5 4 3 4 3 3 3 4 4 4 4 4 4 4 4 4 3 5 7 8 8 13 13 14 14 15 16 15 13 10 8
13 13 12 12 13 15 16 18 18 18 17 15 14 14 15 15 15 15 14 12 12 12 13 12 11 10 10 11 10 10 10 9 8 8 8 7 7 7 6 5 5 4 4 4 4 4 4 3 3 2 2 3 2 4 6 5 4 4 4 3 3 3 4 4 5 5 4 4 4 4 3 3 4 5 7 5 9 13 15 15 16 16 15 16 15
12 11 13 15 17 18 19 18 15 14 15 17 16 14 16 16 16 15 13 13 13 13 12 12 11 12 12 12 11 12 10 9 9 8 8 7 8 7 6 6 7 5 4 5 6 5 4 3 4 4 3 3 1 5 6 5 5 5 5 5 3 4 4 5 5 6 6 4 4 5 4 4 4 10 8 6 6 7 11 15 17 17 18 19 19
9 11 13 13 11 10 12 13 14 14 14 12 13 15 13 11 11 10 13 13 13 12 12 12 12 12 12 11 12 11 10 10 8 8 8 8 8 8 6 5 5 5 6 4 4 5 5 4 4 4 3 2 2 5 6 6 6 6 6 5 4 4 5 5 6 6 4 4 4 4 5 5 4 4 5 7 7 8 9 9 10 10 10 14 19
10 10 9 10 11 11 10 10 12 13 12 12 12 12 11 11 12 13 12 13 13 12 12 12 13 11 11 10 12 10 10 9 9 9 8 8 8 7 7 7 7 7 7 7 7 6 5 4 4 3 2 3 2 6 7 7 7 7 6 6 4 4 4 5 6 5 4 4 4 5 5 6 5 5 5 9 9 9 9 10 11 11 11 10 9
8 9 10 11 12 13 13 13 9 10 11 13 13 11 12 13 11 12 12 12 13 13 13 12 11 10 12 12 12 11 10 9 10 9 9 9 8 9 9 7 6 5 4 4 4 5 5 5 4 3 3 4 4 8 8 7 7 6 7 3 3 4 4 3 3 4 4 4 4 5 5 6 5 6 10 16 14 12 11 12 13 11 9 9 10
6 8 8 7 6 7 7 7 9 11 12 12 11 12 12 11 12 12 12 11 11 12 13 13 12 13 14 13 13 12 11 11 11 11 10 10 10 8 7 6 6 7 7 7 7 5 4 5 4 4 4 5 4 6 8 8 7 7 5 1 3 3 4 4 5 5 5 5 4 4 5 6 7 7 12 16 17 17 10 10 10 13 14 14 12
4 3 4 5 5 5 6 9 9 10 11 11 11 12 12 12 12 11 11 11 11 14 14 13 13 12 13 13 13 13 13 12 11 13 12 10 8 5 7 8 9 9 8 7 5 4 4 4 5 6 6 5 5 6 9 8 8 8 7 4 4 4 5 5 4 6 5 5 6 12 10 9 9 9 14 17 17 14 10 11 12 13 13 11 11
5 7 6 5 6 7 7 7 9 9 8 9 10 12 11 11 10 10 11 11 14 14 13 13 14 13 13 12 11 12 12 13 13 13 11 11 11 10 7 7 6 5 6 5 5 5 4 4 4 5 7 6 5 7 10 10 10 9 6 3 4 3 5 5 4 5 5 5 6 7 12 11 10 11 16 15 18 15 10 10 10 12 12 13 11
4 4 5 5 6 6 6 8 9 9 7 9 9 10 10 10 9 9 10 13 14 14 12 11 12 11 10 10 10 12 12 13 13 10 9 9 7 7 8 8 6 6 6 6 4 5 5 5 5 5 6 5 5 6 6 11 10 10 10 5 5 5 5 5 5 6 5 5 6 6 8 12 14 14 14 17 18 18 12 10 8 8 10 13 10
5 5 6 5 5 7 8 8 6 7 7 8 8 9 9 8 8 9 12 13 12 11 11 12 9 8 9 10 10 12 13 11 10 10 9 8 8 8 8 8 7 6 6 5 5 4 5 5 5 5 5 5 6 7 8 12 11 11 12 10 4 6 6 5 5 6 6 6 5 5 5 10 12 13 16 18 18 19 18 10 7 7 8 13 16
3 5 5 5 4 4 5 5 5 8 8 8 9 9 8 8 8 11 13 13 11 9 8 7 9 10 10 10 10 9 8 9 7 9 9 8 6 7 7 8 6 6 7 7 5 4 5 5 5 6 6 6 7 10 6 10 13 12 12 14 7 6 7 6 7 7 7 6 4 5 5 6 11 16 18 17 19 18 19 8 8 15 18 19 12
4 3 3 5 5 5 5 5 4 6 6 6 9 10 8 8 11 14 13 8 6 6 7 8 8 9 10 10 9 10 9 8 8 9 10 9 8 8 7 7 7 6 7 7 6 4 4 6 6 6 6 6 6 7 12 9 12 13 13 13 14 11 13 9 7 6 5 5 7 6 3 8 15 17 16 17 18 18 13 9 16 16 16 17 11
2 4 5 5 5 4 5 4 4 5 5 6 10 10 8 9 13 13 5 5 5 6 7 8 9 9 8 8 8 8 7 7 9 9 9 9 8 7 7 7 7 7 7 7 5 5 5 6 7 7 6 6 6 6 9 13 11 14 13 13 13 14 15 8 7 6 7 8 6 4 5 13 14 15 17 17 16 14 10 16 15 16 16 12 6
5 4 4 4 6 7 6 5 4 5 5 6 6 10 9 11 11 5 6 8 7 7 8 8 8 8 8 7 6 7 7 7 8 9 10 9 8 8 8 6 7 6 7 7 7 7 8 7 7 7 6 6 6 6 5 9 14 13 13 12 13 14 14 15 9 6 6 5 8 13 14 12 13 15 17 17 12 12 15 14 14 14 11 4 6
4 3 5 4 4 5 6 6 4 5 5 5 6 7 10 12 3 5 5 6 7 7 8 9 7 7 7 8 8 6 6 6 7 7 8 8 10 10 9 8 7 7 7 8 7 8 7 7 7 6 6 5 5 5 6 6 7 8 9 11 12 12 13 14 13 9 14 16 15 14 14 13 12 12 8 4 3 5 12 13 13 11 4 5 4
7 6 6 5 5 5 5 5 6 5 5 5 6 7 9 2 3 5 6 6 7 8 7 6 7 7 6 8 10 8 7 6 6 6 6 7 7 8 8 9 9 9 8 8 7 7 7 7 7 7 6 5 5 6 6 5 6 6 6 5 6 6 10 11 8 7 9 8 8 7 3 8 9 14 13 11 9 9 8 6 5 4 4 4 5
3 4 5 5 5 6 6 6 7 7 6 6 7 9 8 4 2 5 5 6 7 8 9 9 9 8 8 8 8 9 10 8 7 8 9 8 7 8 10 11 12 12 10 8 8 8 9 9 8 7 6 6 6 6 6 7 6 6 6 6 5 5 5 4 6 7 6 5 3 2 4 2 2 3 5 4 4 4 6 5 5 4 5 6 6
5 5 7 9 8 8 8 8 9 6 7 7 8 8 5 5 4 4 6 6 7 5 5 5 5 6 7 6 7 8 8 8 7 7 6 7 9 10 10 6 4 5 8 9 9 9 9 8 7 7 7 6 6 7 8 8 9 9 9 6 6 6 6 6 8 12 6 3 3 2 2 3 2 3 4 5 5 5 5 5 4 5 5 4 5
4 4 5 5 6 8 8 8 8 5 6 7 7 6 4 4 4 4 5 7 6 6 5 6 6 7 6 7 7 7 7 8 8 8 7 5 6 10 7 7 6 9 14 12 9 8 7 6 7 7 7 8 8 6 9 14 14 15 15 15 14 14 13 10 12 18 7 4 5 4 3 3 4 4 5 5 6 5 6 6 5 5 5 5 5
4 5 5 7 7 6 5 6 6 4 5 6 6 4 4 5 6 6 6 5 6 7 6 6 7 7 8 8 7 7 7 7 7 7 7 7 5 7 15 16 12 11 12 15 15 13 12 12 9 6 7 12 10 10 12 12 14 15 16 16 16 16 17 16 16 5 5 5 4 3 3 2 4 6 5 6 5 5 4 5 6 5 4 5 6
Wind_Direction
126 117 118 124 109 95 97 97 97 66 59 49 49 51 50 56 61 57 36 48 64 65 63 78 83 79 70 67 72 61 62 59 55 47 46 46 42 42 40 38 36 35 32 35 44 47 48 46 47 45 44 46 45 43 35 30 27 28 17 15 49 38 25 14 4 352 360 359 356 360 40 78 72 59 24 12 16 33 45 46 40 48 31 24 12
137 133 140 116 119 124 103 71 78 77 51 51 53 51 53 49 59 57 41 49 64 73 79 71 64 74 93 84 86 72 67 62 62 51 52 49 47 44 42 40 41 41 34 35 42 43 46 43 42 41 41 43 46 41 36 33 30 29 22 16 18 47 37 18 12 359 21 11 340 334 28 31 66 46 29 6 12 16 34 39 28 54 41 29 13
154 142 132 123 125 112 109 95 82 82 79 70 53 65 54 58 60 61 55 59 60 73 76 83 83 84 90 97 93 90 72 75 75 70 62 57 51 46 43 42 41 41 37 35 40 37 41 43 38 35 38 38 42 39 33 33 27 28 27 30 4 19 36 16 25 33 17 337 309 45 4 1 346 14 4 6 17 23 22 19 17 42 38 29 7
154 149 143 145 136 126 113 102 97 92 78 47 46 65 65 64 70 73 73 70 80 83 91 89 93 96 90 95 92 89 93 81 74 64 57 53 48 42 41 41 40 42 37 37 39 39 38 41 39 38 36 34 42 46 38 34 25 24 24 27 28 27 19 14 17 23 30 9 18 18 304 38 1 358 347 319 14 21 17 4 13 32 30 20 9
151 148 139 141 139 132 123 116 108 93 77 57 46 76 81 82 88 90 91 93 94 99 100 106 106 102 106 102 93 91 72 67 68 58 54 56 57 46 42 40 42 43 39 39 41 40 39 39 40 40 42 35 36 44 44 37 30 25 24 29 30 37 25 16 10 20 25 29 47 17 3 28 33 298 324 291 10 350 6 359 357 23 22 12 3
147 144 147 144 128 121 118 121 111 103 93 75 60 77 93 94 95 101 105 108 115 113 114 115 117 118 116 106 96 89 82 68 70 79 68 61 63 58 51 45 45 46 41 41 42 42 41 38 39 41 41 38 37 40 39 36 31 28 19 31 30 23 43 29 22 7 24 19 25 62 94 93 327 306 19 317 357 307 22 347 340 14 14 359 336
138 137 139 133 139 135 131 127 119 110 112 106 87 88 85 88 92 90 94 94 116 128 124 103 91 89 92 98 102 103 106 89 88 87 88 82 80 67 59 50 48 51 44 42 42 41 42 39 38 39 39 40 35 40 39 36 30 30 20 26 30 29 30 43 28 4 358 18 13 11 17 12 20 17 345 320 335 334 37 338 341 2 354 342 331
145 143 141 140 143 143 139 127 119 125 124 106 87 81 91 97 98 100 92 85 74 85 89 97 103 104 106 102 101 101 98 111 106 96 95 99 87 81 72 58 49 47 48 42 40 39 40 39 37 37 37 32 32 37 40 32 33 29 31 26 24 32 36 45 25 12 43 357 1 6 8 2 2 15 28 45 301 314 323 312 314 346 342 326 338
152 151 149 151 150 139 132 122 122 121 123 116 113 108 102 103 103 97 92 86 80 87 96 97 105 115 116 116 106 103 106 107 111 100 98 96 87 78 74 66 57 47 46 48 42 40 40 40 36 37 37 32 29 29 29 33 35 33 29 27 25 20 27 33 42 16 18 16 9 354 4 7 353 349 11 24 2 320 297 337 326 327 328 307 339
153 146 139 134 129 130 128 122 113 123 126 119 116 111 112 110 108 106 100 99 102 103 108 110 117 123 118 120 117 117 116 107 104 104 94 86 87 76 72 69 62 55 44 43 45 41 42 41 41 36 34 31 32 26 23 24 29 28 30 33 28 31 13 31 39 16 16 6 19 7 12 356 353 359 7 6 329 291 302 321 322 328 326 329 334
151 145 136 125 119 123 129 130 131 125 129 126 120 123 126 120 119 111 114 107 107 112 114 118 120 124 121 122 119 121 119 119 113 104 101 87 88 87 80 78 73 64 51 41 44 41 39 40 42 39 33 30 30 29 20 18 20 32 21 28 33 32 17 17 32 19 19 15 7 12 5 10 358 344 336 352 349 323 323 302 310 301 302 313 319
148 142 135 131 131 137 130 130 139 141 124 119 126 124 123 125 122 115 112 113 114 117 117 118 119 116 113 116 116 118 120 117 114 111 111 110 105 102 94 82 70 62 52 48 40 36 38 37 34 36 35 29 26 23 23 16 10 33 25 28 32 26 19 16 33 21 13 14 5 357 358 360 350 349 339 355 347 320 321 307 313 314 303 267 305
150 146 142 145 150 155 148 146 139 142 138 138 140 136 132 130 131 124 125 126 123 123 120 117 114 116 117 115 110 108 107 109 111 108 111 111 110 99 92 82 66 59 48 51 39 39 39 37 36 35 31 29 24 20 18 19 9 26 39 23 36 31 12 10 29 23 13 19 358 338 360 352 335 331 1 355 342 337 335 317 300 316 303 310 308
154 152 153 156 158 161 151 145 146 144 144 146 147 144 143 140 140 130 133 132 128 122 120 115 109 109 107 109 109 110 106 104 104 106 104 102 101 99 97 95 89 83 72 60 50 53 51 48 48 40 37 32 32 19 15 17 8 16 40 27 27 32 8 4 5 20 6 15 350 348 354 339 327 345 355 4 343 350 335 330 316 313 296 297 304
158 160 161 163 162 159 150 149 149 147 149 151 151 150 145 143 142 138 134 136 130 126 119 115 113 110 109 106 106 103 103 99 97 100 102 102 100 102 97 93 96 97 99 97 69 58 75 87 68 50 42 37 37 31 17 15 5 5 38 28 13 34 2 358 350 16 14 6 348 0 354 335 338 337 360 348 347 340 337 321 329 324 316 297 305
163 161 160 162 157 154 148 152 151 150 152 154 155 152 148 148 144 145 140 139 133 128 124 123 119 113 105 103 100 99 100 98 96 94 95 98 103 105 107 109 108 105 97 87 80 74 51 62 72 59 48 42 35 38 23 14 2 9 33 10 24 21 4 349 337 12 9 1 356 348 359 329 328 331 348 343 342 335 321 316 326 322 316 316 319
167 167 167 159 153 158 156 155 154 153 156 164 164 159 153 149 148 144 139 134 134 133 129 123 116 108 101 100 101 101 103 109 113 109 105 99 97 99 105 106 101 102 106 105 95 92 75 71 66 70 52 46 38 35 23 9 5 3 24 2 35 16 4 338 339 5 352 8 354 344 338 324 315 333 344 338 328 319 314 311 307 309 316 314 315
165 160 162 161 159 159 160 160 161 162 162 162 162 157 151 154 152 145 146 143 143 135 129 125 118 111 108 102 98 105 111 111 109 108 104 107 109 106 102 102 117 122 114 103 95 84 68 69 67 53 50 44 43 31 25 10 5 354 8 12 49 28 354 338 331 12 349 11 339 344 325 327 310 336 325 323 319 315 320 318 319 322 323 300 295
169 170 168 169 169 169 168 165 161 163 164 160 156 148 146 149 151 152 152 150 143 137 127 118 118 118 115 114 116 114 113 109 107 105 106 112 115 116 122 129 105 94 92 86 82 77 64 57 71 52 45 44 36 28 22 11 356 18 7 24 12 16 354 340 324 13 338 359 335 336 325 323 315 329 331 331 331 335 322 321 315 309 304 287 288
176 174 174 173 171 171 170 168 166 167 165 160 154 148 153 154 153 153 144 138 134 134 133 129 125 122 119 115 114 116 111 111 111 112 115 120 125 123 118 105 112 104 97 93 90 81 77 67 54 62 45 32 38 15 17 6 5 18 13 19 350 6 352 336 328 337 333 352 355 340 321 317 318 353 344 332 325 312 311 318 313 310 307 306 298
179 177 174 172 171 170 169 166 161 154 153 152 158 162 161 156 160 159 151 148 143 142 136 133 126 125 125 125 125 120 117 113 111 118 125 134 130 121 118 119 99 98 103 97 89 87 82 83 70 69 83 37 44 23 348 29 11 10 356 359 355 354 353 322 338 331 335 2 352 334 314 314 339 6 330 318 312 310 318 318 329 337 324 320 319
179 178 173 169 169 167 161 154 155 157 162 164 165 161 163 165 163 154 148 149 147 147 143 135 129 131 132 130 125 120 117 119 123 129 132 131 125 123 127 107 109 111 103 102 107 104 98 98 109 90 86 42 51 12 356 31 10 2 350 350 357 352 335 321 334 326 333 336 350 321 316 318 340 353 319 313 307 316 316 335 329 317 306 305 305
178 176 174 171 169 168 167 167 169 171 170 167 169 171 167 164 159 157 153 159 156 149 141 136 137 137 135 131 125 125 127 132 135 140 137 133 129 123 119 125 122 120 104 107 110 115 112 112 114 111 99 41 53 22 3 30 353 10 341 335 327 334 312 313 326 313 322 322 335 326 314 328 338 332 309 305 309 309 332 331 320 321 311 305 300
173 170 164 164 163 162 164 174 174 175 174 175 172 168 167 169 162 157 160 158 153 148 144 139 138 136 136 131 132 135 139 145 145 150 142 135 127 120 117 121 133 124 124 130 125 120 117 133 132 111 86 114 38 37 353 344 353 315 360 310 311 306 308 312 319 318 314 324 320 334 315 327 326 319 306 308 308 328 335 335 327 315 308 309 312
169 171 169 163 165 174 183 181 178 174 173 172 173 175 173 171 165 164 163 161 153 150 145 147 146 143 143 140 144 146 152 154 151 149 144 134 129 128 126 133 128 132 142 147 144 141 149 133 139 126 129 147 140 135 292 300 322 6 346 291 282 306 314 320 316 313 320 325 323 307 308 317 317 310 301 305 309 338 339 335 314 312 320 315 314
175 167 163 176 182 181 180 181 177 177 177 177 176 175 173 172 173 168 163 160 159 153 153 152 154 149 150 151 154 156 162 157 151 148 144 139 135 133 134 130 134 143 143 137 132 146 146 140 134 146 163 183 160 162 248 246 270 336 327 312 328 335 331 323 311 309 311 310 298 291 292 305 305 300 299 300 332 344 334 318 315 315 311 309 306
175 178 178 166 171 187 190 182 180 178 180 180 177 175 174 173 173 171 168 163 163 159 158 157 157 155 156 161 162 166 161 154 152 149 141 134 135 138 137 139 142 151 151 149 148 156 174 150 208 137 180 172 180 246 250 329 47 22 9 354 345 335 320 323 307 306 305 295 291 289 288 287 288 286 294 318 331 323 316 306 305 308 304 305 307
155 160 171 185 191 188 184 184 179 182 181 179 179 178 176 176 175 171 168 166 166 161 162 163 161 163 166 166 167 163 153 150 147 144 140 137 136 137 136 135 134 153 151 148 166 161 198 143 198 155 190 133 199 304 290 78 50 28 16 346 342 317 305 305 302 293 290 292 291 288 281 279 281 285 301 309 307 300 295 289 294 298 306 308 308
174 184 187 190 190 191 189 185 185 178 180 180 177 179 178 177 176 174 170 174 166 164 167 168 168 170 171 165 159 154 149 147 148 145 142 143 144 142 138 139 153 164 144 150 156 153 190 189 181 174 186 245 148 236 111 101 80 348 330 300 290 295 302 296 296 302 300 297 295 290 287 286 289 298 303 304 302 301 300 297 288 291 301 300 297
188 191 194 195 194 192 189 185 182 183 183 181 181 182 181 177 176 176 175 173 164 171 170 173 174 174 167 162 156 150 149 148 150 153 152 149 147 147 145 151 161 152 146 154 169 190 189 203 185 191 173 166 191 205 147 165 187 198 254 271 286 281 285 289 295 298 295 290 292 297 301 307 308 309 310 309 307 305 302 301 300 299 292 286 280
197 199 199 197 195 193 188 187 190 188 187 185 183 180 175 176 179 179 177 175 170 172 177 176 176 170 163 152 148 150 149 159 161 151 151 151 150 147 149 155 162 154 167 163 168 205 198 204 183 178 188 198 185 193 210 215 232 260 265 267 273 284 287 292 284 284 290 298 296 298 308 312 310 309 306 304 308 309 307 304 302 300 300 300 303
201 201 196 192 194 192 190 193 193 192 188 183 179 179 179 185 181 180 179 171 173 177 177 178 172 165 160 158 157 154 160 165 159 161 161 156 146 146 155 161 162 163 174 167 200 207 206 191 170 177 181 211 215 227 224 232 250 259 262 264 266 276 282 282 287 284 284 292 296 303 299 297 300 300 299 307 308 306 307 307 307 305 303 300 296
200 195 196 197 197 197 196 196 191 187 187 190 183 178 186 186 182 182 169 174 178 177 176 175 175 171 167 164 160 163 168 169 169 163 158 151 150 153 158 166 181 179 171 184 205 203 201 188 171 186 203 219 200 248 243 243 254 264 270 276 272 271 270 272 276 281 282 287 298 299 297 295 297 302 305 300 295 293 295 300 302 298 292 286 286
199 199 201 202 198 199 197 192 190 190 190 185 183 190 189 180 176 167 173 178 175 179 177 178 177 177 170 164 162 167 173 172 163 159 158 157 159 173 171 167 166 173 183 189 205 202 194 191 182 183 195 208 209 244 245 247 254 259 267 273 265 266 268 270 271 275 281 286 290 289 293 293 289 289 291 293 290 283 281 278 276 263 258 263 269
194 195 194 192 193 193 186 183 187 184 178 174 184 186 176 172 175 178 181 178 180 176 179 180 182 175 164 164 167 172 172 167 164 163 164 166 169 165 167 175 179 186 183 191 197 192 199 186 182 165 178 230 229 240 245 247 250 256 263 270 268 268 267 267 271 273 273 269 271 276 278 279 283 283 277 289 291 288 283 278 273 272 270 265 261
192 185 192 189 191 190 188 190 175 166 175 181 185 174 173 182 173 178 179 182 178 180 184 182 176 168 170 172 172 175 171 167 165 168 172 174 174 178 177 175 175 187 189 183 203 186 196 185 174 172 193 236 243 244 245 243 246 252 261 262 256 259 259 262 268 268 266 258 255 255 260 268 267 272 284 295 296 294 285 283 283 283 286 289 283
193 186 195 190 180 177 179 159 162 173 174 183 172 171 176 172 176 183 178 180 179 184 187 184 179 176 178 177 176 174 174 171 170 173 181 180 176 181 177 166 174 187 185 191 195 191 185 177 182 184 195 233 240 247 248 244 246 246 246 227 246 245 254 255 259 263 264 264 262 260 259 265 274 266 281 294 297 300 294 300 312 312 300 291 289
133 123 136 148 159 152 158 160 166 174 178 172 171 172 171 175 182 177 173 178 182 192 191 185 184 181 182 180 180 176 174 173 173 184 186 185 178 171 175 175 180 183 189 191 180 185 190 181 189 196 195 207 241 244 243 248 249 240 230 215 227 239 251 252 253 261 259 255 254 271 276 277 277 271 277 290 299 312 319 317 301 296 304 309 310
135 139 140 145 158 160 161 156 161 175 180 166 167 167 169 179 177 174 175 180 194 197 190 187 188 187 186 181 177 176 176 176 184 191 183 176 179 181 172 165 182 181 179 160 164 177 203 210 206 202 204 207 233 249 252 251 246 241 232 216 222 221 241 244 244 250 253 249 252 260 273 277 278 282 291 302 311 316 308 303 314 313 309 307 309
92 98 130 134 128 116 135 158 174 179 162 159 157 163 172 174 175 170 180 193 200 199 191 190 191 186 180 176 177 179 182 182 189 184 178 177 155 146 164 170 177 173 162 157 162 176 199 222 213 203 211 207 220 246 249 250 242 234 227 208 207 229 233 247 245 255 250 253 249 243 259 281 287 292 302 310 312 310 312 314 313 314 313 302 301
122 130 126 125 139 149 163 168 161 145 144 147 148 154 171 171 166 172 196 203 201 193 191 196 182 173 175 180 181 184 186 190 184 177 166 154 158 162 156 162 170 163 155 155 170 188 203 225 226 225 210 217 208 229 246 246 245 235 230 226 213 227 237 241 245 251 251 251 248 249 248 273 288 298 306 307 307 312 313 316 325 305 291 297 311
105 122 122 122 114 114 111 117 137 145 145 147 150 161 169 166 171 195 206 206 198 191 184 174 174 177 180 180 183 186 183 173 156 147 154 160 153 147 159 158 164 168 165 169 168 188 203 230 239 232 226 223 220 223 227 248 245 236 229 227 217 220 232 228 240 244 246 239 252 269 259 278 292 301 305 305 311 313 316 327 308 304 310 317 326
127 110 113 129 129 133 145 148 142 142 149 154 155 168 174 177 189 210 209 198 180 171 171 174 176 177 181 182 180 173 169 160 161 162 158 158 152 151 155 156 163 168 166 167 178 191 211 233 241 238 230 223 219 221 230 231 242 238 230 228 232 233 236 234 230 236 242 269 264 255 247 286 301 302 305 310 312 316 325 310 309 316 320 325 342
131 149 151 134 131 134 137 133 135 150 155 162 162 172 177 182 209 215 176 152 162 170 166 173 181 183 173 174 172 167 158 157 157 154 154 151 156 154 155 166 168 169 171 176 189 193 212 227 231 236 230 224 215 206 228 231 232 238 233 229 233 238 240 235 237 245 248 251 247 216 252 289 299 307 310 310 314 317 312 311 313 317 325 339 341
157 163 157 142 150 152 141 137 152 159 168 170 174 166 178 194 221 170 173 175 174 166 171 181 182 176 172 163 151 157 157 156 158 156 158 160 157 158 162 175 168 178 179 185 194 189 206 218 222 225 223 216 207 204 211 234 235 232 233 233 236 242 245 247 250 246 259 252 252 262 279 294 306 309 308 310 314 311 310 308 313 320 333 340 316
129 147 163 158 130 133 143 159 168 171 170 176 183 172 174 215 187 166 174 162 160 166 178 186 176 170 162 149 150 147 148 154 158 170 172 170 167 172 173 170 177 191 192 194 196 192 205 212 223 225 219 214 208 195 207 217 233 241 242 243 242 243 246 248 252 258 256 257 259 267 283 300 306 302 301 300 288 296 306 310 316 320 319 308 298
181 183 151 149 144 152 174 178 193 209 185 191 191 205 213 190 149 159 151 156 163 174 180 172 172 164 154 158 162 165 162 161 166 164 169 169 170 175 176 179 183 187 196 199 197 196 202 208 220 223 219 212 212 207 207 211 218 225 229 238 245 246 250 254 259 261 265 265 271 276 275 277 288 301 305 306 306 307 306 299 292 295 294 292 290
177 137 147 146 165 182 188 190 208 208 196 195 202 214 217 199 150 142 143 148 167 178 182 186 179 167 169 171 173 165 163 170 180 177 180 182 185 184 189 193 188 189 184 196 193 202 202 204 214 206 205 208 216 208 210 207 214 214 219 218 218 224 224 229 254 257 243 209 177 215 275 309 313 299 297 301 289 281 278 291 295 295 293 289 292
165 174 166 182 188 192 202 196 215 200 189 195 212 221 205 194 173 135 143 157 175 183 176 167 160 156 169 172 172 170 177 174 181 191 209 200 188 191 202 218 225 193 196 188 191 204 206 206 198 192 188 212 208 215 216 204 208 217 214 206 219 218 220 213 248 259 229 146 155 211 220 283 292 276 281 281 285 290 287 282 290 293 290 299 309
199 169 192 211 208 203 204 209 223 190 186 201 216 220 192 176 160 153 152 166 169 161 169 178 172 174 168 167 177 178 180 179 180 190 192 227 224 210 207 201 216 213 216 218 202 203 198 190 201 213 193 200 208 209 207 216 224 227 229 224 223 228 230 234 233 255 230 164 190 205 218 253 272 270 271 273 276 277 284 297 288 295 305 307 295
185 175 198 209 224 224 227 234 232 190 200 208 217 193 168 172 162 163 163 165 154 169 182 185 175 190 184 182 179 179 183 182 181 181 189 196 222 233 223 221 217 218 222 225 225 224 214 200 191 209 224 224 223 220 223 226 232 236 235 239 241 246 250 256 265 270 141 190 198 231 261 258 258 253 255 258 267 272 277 286 291 293 289 292 297